FLOCK 3P-80

Last updated on Wed Feb 14 2018 16:20:32 GMT+0000 (Coordinated Universal Time)

1 42026U 17008CG 18045.47247976 .00002639 00000-0 11175-3 0 9992 2 42026 97.4683 111.1801 0009441 73.8312 286.3963 15.24031900 53402
UTC large
Height (km)
Speed (km/s)
/
Latitude / Longitude
Inclination (degrees)
Orbital Period (minutes)
Azimuth
Elevation
Range (km)
Doppler Factor

Next 0 passes for location: London (51.5072 / 0.1276)

Sorry there are no passes over London.